GW3789 Weather Reports


Display with metric or nautical units.
time (UTC)temp
F
wind
direction
speed
MPH
gust
MPH
rain 1hr
in
rain 24hr
in
rain mn
in
humidity
%
barometer
mb
20260503192503 55 207 1.0 6.0 0.00 0.01 0.01 71 1013.9
20260503192004 55 123 2.0 6.0 0.00 0.01 0.01 70 1013.8
20260503191514 55 76 2.0 7.0 0.00 0.01 0.01 70 1013.6
20260503191006 55 149 2.0 7.0 0.00 0.01 0.01 70 1013.6
20260503190506 55 138 2.0 7.0 0.00 0.01 0.01 70 1013.5
20260503190025 55 134 3.0 7.0 0.00 0.01 0.01 70 1013.6
20260503185507 55 161 3.0 9.0 0.00 0.01 0.01 71 1013.6
20260503185003 55 210 3.0 9.0 0.00 0.01 0.01 70 1013.6
20260503184517 56 96 2.0 6.0 0.00 0.01 0.01 71 1013.7
20260503184004 56 166 2.0 10.0 0.00 0.01 0.01 70 1013.7
20260503183507 56 146 3.0 10.0 0.00 0.01 0.01 70 1013.6
20260503183013 56 237 2.0 7.0 0.00 0.01 0.01 70 1013.6
20260503182505 56 141 2.0 8.0 0.00 0.01 0.01 70 1013.5
20260503182011 56 160 3.0 8.0 0.00 0.01 0.01 70 1013.4
20260503181513 56 210 3.0 11.0 0.00 0.01 0.01 69 1013.3
20260503181009 56 151 5.0 11.0 0.00 0.01 0.01 69 1013.2
20260503180506 57 174 5.0 9.0 0.00 0.01 0.01 69 1013.2
20260503180016 57 158 4.0 9.0 0.00 0.01 0.01 69 1013.3
20260503175504 57 203 4.0 9.0 0.00 0.01 0.01 69 1013.3
20260503175003 57 94 4.0 9.0 0.00 0.01 0.01 69 1013.4
20260503174515 57 167 3.0 8.0 0.00 0.01 0.01 69 1013.5
20260503174006 58 129 4.0 8.0 0.00 0.01 0.01 69 1013.5
20260503173508 58 143 4.0 8.0 0.00 0.01 0.01 69 1013.5
20260503173020 58 112 4.0 8.0 0.00 0.01 0.01 69 1013.6
20260503172506 58 139 2.0 10.0 0.00 0.01 0.01 70 1013.6
20260503172005 58 105 5.0 10.0 0.00 0.01 0.01 69 1013.6
20260503171518 58 230 2.0 7.0 0.00 0.01 0.01 70 1013.7
20260503171007 58 110 3.0 7.0 0.00 0.01 0.01 69 1013.7
20260503170506 58 176 2.0 7.0 0.00 0.01 0.01 69 1013.7
20260503151002 61 219 3.0 8.0 0.00 0.01 0.01 66 1014.0
20260503150503 61 128 5.0 12.0 0.00 0.01 0.01 66 1014.1
20260503131006 60 165 4.0 9.0 0.00 0.01 0.01 70 1015.4
20260503130505 59 145 5.0 9.0 0.00 0.01 0.01 68 1015.5
20260503110512 59 121 6.0 13.0 0.00 0.01 0.01 72 1016.3
20260503090509 53 122 6.0 14.0 0.00 0.01 0.01 76 1016.3
20260503081539 52 95 5.0 9.0 0.00 0.01 0.01 75 1016.2
20260503081009 52 296 4.0 9.0 0.00 0.01 0.01 76 1016.1
20260503080502 52 122 6.0 10.0 0.00 0.01 0.01 76 1016.1
20260503072507 51 122 3.0 8.0 0.00 0.01 0.01 76 1016.0
20260503072009 50 139 3.0 11.0 0.00 0.01 0.01 77 1016.0
20260503071532 50 224 3.0 11.0 0.00 0.01 0.01 77 1016.0
20260503071005 50 116 3.0 9.0 0.00 0.01 0.01 77 1015.9
20260503070502 50 113 5.0 8.0 0.00 0.01 0.01 77 1015.9
20260503055009 50 151 3.0 8.0 0.00 0.00 0.00 75 1015.8
20260503054521 51 158 3.0 8.0 0.00 0.00 0.00 73 1015.6
20260503054008 51 81 2.0 7.0 0.00 0.00 0.00 71 1015.7
20260503053502 51 170 1.0 7.0 0.00 0.00 0.00 72 1015.6
20260503053008 51 182 2.0 5.0 0.00 0.00 0.00 72 1015.6
20260503052503 51 112 1.0 5.0 0.00 0.00 0.00 72 1015.5
20260503052004 51 232 1.0 6.0 0.00 0.00 0.00 72 1015.4
20260503051512 51 142 2.0 6.0 0.00 0.00 0.00 72 1015.4
20260503051006 50 188 1.0 5.0 0.00 0.00 0.00 72 1015.4
20260503050506 50 136 1.0 5.0 0.00 0.00 0.00 72 1015.3
20260503050020 50 304 1.0 6.0 0.00 0.00 0.00 73 1015.3
20260503045511 50 356 2.0 8.0 0.00 0.00 0.00 72 1015.3
20260503045008 50 114 2.0 8.0 0.00 0.00 0.00 72 1015.3
20260503044522 50 330 1.0 5.0 0.00 0.00 0.00 73 1015.3
20260503044008 50 152 2.0 5.0 0.00 0.00 0.00 73 1015.1
20260503043509 51 292 1.0 5.0 0.00 0.00 0.00 72 1015.2
20260503043027 51 31 1.0 6.0 0.00 0.00 0.00 69 1015.0
20260503042505 51 125 2.0 6.0 0.00 0.00 0.00 69 1015.0
20260503042007 51 162 2.0 6.0 0.00 0.00 0.00 70 1015.0
20260503041508 51 297 1.0 4.0 0.00 0.00 0.00 70 1015.0
20260503041002 51 134 1.0 5.0 0.00 0.00 0.00 71 1015.0
20260503040511 51 133 1.0 8.0 0.00 0.00 0.00 71 1015.0
20260503040016 51 243 2.0 8.0 0.00 0.00 0.00 70 1015.1
20260503035507 51 350 1.0 6.0 0.00 0.00 0.00 70 1015.1
20260503035009 51 89 2.0 10.0 0.00 0.00 0.00 70 1015.1
20260503034520 51 124 3.0 10.0 0.00 0.00 0.00 69 1015.0
20260503034010 51 134 2.0 6.0 0.00 0.00 0.00 69 1015.1
20260503033506 51 149 2.0 6.0 0.00 0.00 0.00 69 1015.1
20260503033027 51 173 2.0 5.0 0.00 0.00 0.00 69 1015.2
20260503032510 51 128 2.0 6.0 0.00 0.00 0.00 69 1015.3
20260503032009 51 314 2.0 6.0 0.00 0.00 0.00 68 1015.4
20260503031527 52 139 1.0 7.0 0.00 0.00 0.00 67 1015.4
20260503031007 52 158 2.0 7.0 0.00 0.00 0.00 66 1015.5
20260503030507 52 321 2.0 6.0 0.00 0.00 0.00 66 1015.6
20260503030013 52 143 2.0 6.0 0.00 0.00 0.00 65 1015.5
20260503025509 52 160 1.0 6.0 0.00 0.00 0.00 65 1015.5
20260503025008 52 21 2.0 9.0 0.00 0.00 0.00 65 1015.5
20260503024516 52 314 2.0 9.0 0.00 0.00 0.00 65 1015.6
20260503024009 52 285 1.0 7.0 0.00 0.00 0.00 64 1015.5
20260503023509 52 84 2.0 7.0 0.00 0.00 0.00 64 1015.5
20260503023022 52 281 2.0 5.0 0.00 0.00 0.00 64 1015.4
20260503022505 52 150 1.0 4.0 0.00 0.00 0.00 64 1015.5
20260503022011 52 193 1.0 5.0 0.00 0.00 0.00 64 1015.4
20260503021523 52 62 1.0 6.0 0.00 0.00 0.00 63 1015.5
20260503021006 52 133 2.0 6.0 0.00 0.00 0.00 63 1015.5
20260503020509 52 154 1.0 6.0 0.00 0.00 0.00 63 1015.6
20260503020027 52 303 1.0 6.0 0.00 0.00 0.00 63 1015.6
20260503015506 53 49 2.0 7.0 0.00 0.00 0.00 63 1015.6
20260503015010 53 304 2.0 7.0 0.00 0.00 0.00 63 1015.6
20260503014513 53 239 1.0 5.0 0.00 0.00 0.00 63 1015.7
20260503014007 53 173 1.0 5.0 0.00 0.00 0.00 63 1015.7
20260503013504 53 102 1.0 5.0 0.00 0.00 0.00 63 1015.6
20260503013021 53 158 1.0 5.0 0.00 0.00 0.00 62 1015.7
20260503012507 53 267 1.0 5.0 0.00 0.00 0.00 62 1015.7
20260503012007 53 280 1.0 5.0 0.00 0.00 0.00 62 1015.7
20260503011524 53 300 1.0 5.0 0.00 0.00 0.00 61 1015.8
20260503011006 53 271 0.0 6.0 0.00 0.00 0.00 61 1015.7
20260503010508 53 233 1.0 7.0 0.00 0.00 0.00 61 1015.7
20260503010026 53 28 1.0 7.0 0.00 0.00 0.00 61 1015.7
20260503005511 53 250 2.0 5.0 0.00 0.00 0.00 61 1015.9
20260503005012 53 300 1.0 4.0 0.00 0.00 0.00 60 1015.9
20260503004530 54 162 1.0 5.0 0.00 0.00 0.00 60 1015.9
20260503004008 54 112 1.0 5.0 0.00 0.00 0.00 60 1016.0
20260503003510 54 83 1.0 4.0 0.00 0.00 0.00 60 1015.9
20260503003043 54 318 1.0 6.0 0.00 0.00 0.00 59 1016.0
20260503002504 54 149 1.0 6.0 0.00 0.00 0.00 59 1016.0
20260503002007 54 257 1.0 7.0 0.00 0.00 0.00 59 1016.0
20260503001541 54 91 1.0 7.0 0.00 0.00 0.00 58 1016.0
20260503001005 54 340 1.0 6.0 0.00 0.00 0.00 58 1016.0
20260503001003 54 313 1.0 6.0 0.00 0.00 0.00 58 1016.0
20260503000503 54 161 1.0 5.0 0.00 0.00 0.00 58 1016.0
20260503000005 54 148 1.0 6.0 0.00 0.00 0.00 57 1016.0
20260502235503 54 126 1.0 6.0 0.00 0.00 0.00 57 1016.1
20260502235003 54 61 2.0 6.0 0.00 0.00 0.00 57 1016.1
20260502234506 54 148 1.0 8.0 0.00 0.00 0.00 57 1016.2
20260502234003 54 262 3.0 9.0 0.00 0.00 0.00 56 1016.2
20260502233504 54 145 4.0 9.0 0.00 0.00 0.00 57 1016.2
20260502233020 54 131 3.0 9.0 0.00 0.00 0.00 56 1016.3
20260502232504 54 360 2.0 10.0 0.00 0.00 0.00 57 1016.5
20260502232006 54 112 1.0 10.0 0.00 0.00 0.00 57 1016.6
20260502231515 54 129 1.0 7.0 0.00 0.00 0.00 56 1016.6
20260502231008 54 68 2.0 7.0 0.00 0.00 0.00 56 1016.6
20260502230508 54 135 3.0 8.0 0.00 0.00 0.00 56 1016.6
20260502230022 54 191 2.0 8.0 0.00 0.00 0.00 57 1016.7
20260502225508 54 239 2.0 8.0 0.00 0.00 0.00 56 1016.8
20260502225005 54 32 2.0 8.0 0.00 0.00 0.00 56 1016.9
20260502224505 54 110 1.0 7.0 0.00 0.00 0.00 56 1016.9
20260502224004 54 136 3.0 8.0 0.00 0.00 0.00 56 1016.9
20260502223506 54 113 2.0 8.0 0.00 0.00 0.00 56 1016.9
20260502223014 54 184 3.0 7.0 0.00 0.00 0.00 56 1017.0
20260502222503 54 117 2.0 7.0 0.00 0.00 0.00 57 1017.0
20260502222004 55 124 3.0 8.0 0.00 0.00 0.00 57 1017.0
20260502221513 54 228 3.0 8.0 0.00 0.00 0.00 57 1017.0
20260502221004 54 122 4.0 8.0 0.00 0.00 0.00 57 1017.0
20260502220506 54 132 2.0 7.0 0.00 0.00 0.00 58 1017.0
20260502220020 54 141 2.0 7.0 0.00 0.00 0.00 58 1017.1
20260502215510 54 108 2.0 7.0 0.00 0.00 0.00 58 1017.2
20260502215007 54 125 3.0 7.0 0.00 0.00 0.00 58 1017.1
20260502214523 54 330 2.0 7.0 0.00 0.00 0.00 58 1017.2
20260502214009 54 335 2.0 9.0 0.00 0.00 0.00 58 1017.2
20260502213508 54 182 2.0 9.0 0.00 0.00 0.00 58 1017.2
20260502213004 54 72 2.0 7.0 0.00 0.00 0.00 58 1017.2
20260502212504 54 147 2.0 8.0 0.00 0.00 0.00 59 1017.2
20260502212007 55 159 2.0 11.0 0.00 0.00 0.00 58 1017.1
20260502211516 55 121 3.0 11.0 0.00 0.00 0.00 58 1017.1
20260502211003 55 156 4.0 9.0 0.00 0.00 0.00 58 1017.1
20260502210510 55 89 3.0 8.0 0.00 0.00 0.00 58 1017.1
20260502210015 55 183 4.0 10.0 0.00 0.00 0.00 58 1017.0
20260502205506 55 320 3.0 10.0 0.00 0.00 0.00 59 1017.1
20260502205007 54 204 3.0 7.0 0.00 0.00 0.00 59 1017.1
20260502204518 55 52 1.0 5.0 0.00 0.00 0.00 59 1017.2
20260502204009 55 105 0.0 5.0 0.00 0.00 0.00 59 1017.2
20260502203507 55 304 1.0 4.0 0.00 0.00 0.00 59 1017.3
20260502203026 55 169 1.0 5.0 0.00 0.00 0.00 59 1017.2
20260502202510 55 49 2.0 5.0 0.00 0.00 0.00 58 1017.4
20260502202010 55 299 1.0 5.0 0.00 0.00 0.00 58 1017.4
20260502201527 55 162 1.0 5.0 0.00 0.00 0.00 58 1017.4
20260502201006 55 340 1.0 5.0 0.00 0.00 0.00 58 1017.4
20260502200503 55 96 1.0 6.0 0.00 0.00 0.00 58 1017.4
20260502200011 55 171 2.0 7.0 0.00 0.00 0.00 57 1017.3
20260502195502 55 49 2.0 7.0 0.00 0.00 0.00 57 1017.2
20260502195003 56 171 3.0 9.0 0.00 0.00 0.00 57 1017.2
20260502194515 56 169 3.0 9.0 0.00 0.00 0.00 57 1017.2
20260502194008 56 159 2.0 9.0 0.00 0.00 0.00 57 1017.2
20260502193507 56 158 2.0 6.0 0.00 0.00 0.00 56 1017.1
20260502193020 56 178 3.0 11.0 0.00 0.00 0.00 56 1017.2